,,,PA_Meas_PMT16A,,PR_Meas_QMR101_102,,RH_Meas_QMH101,,SR_Meas_QMS101,,TA_Meas_QMH101,,GenWind,,GenWind,
date,time,status,PA,status,PR,status,RH,status,SR,status,TA,status,DirAvg,status,SpdAvg,
2011-03-12, 00:00:04,VALID,999.675,VALID,0,VALID,92.5397,VALID,0,VALID,23.4671,VALID,358,VALID,0.0589844,
2011-03-12, 00:01:04,VALID,999.662,VALID,0,VALID,92.5397,VALID,0,VALID,23.5061,VALID,358,VALID,0.0929687,
2011-03-12, 00:02:04,VALID,999.652,VALID,0,VALID,92.5397,VALID,0,VALID,23.5256,VALID,358,VALID,0.000390625,
2011-03-12, 00:03:04,VALID,999.63,VALID,0,VALID,92.5397,VALID,0,VALID,23.5646,VALID,358,VALID,0.177734,
2011-03-12, 00:04:04,VALID,999.633,VALID,0,VALID,92.5626,VALID,0,VALID,23.5646,VALID,358,VALID,0.0410156,
2011-03-12, 00:05:04,VALID,999.593,VALID,0,VALID,92.5626,VALID,0,VALID,23.5841,VALID,358,VALID,0,
2011-03-12, 00:06:04,VALID,999.576,VALID,0,VALID,92.5702,VALID,0,VALID,23.6036,VALID,358,VALID,0,
2011-03-12, 00:07:04,VALID,999.588,VALID,0,VALID,92.5626,VALID,0,VALID,23.5841,VALID,358,VALID,0,
2011-03-12, 00:08:04,VALID,999.559,VALID,0,VALID,92.5397,VALID,0,VALID,23.5841,VALID,358,VALID,0,
2011-03-12, 00:09:04,VALID,999.556,VALID,0,VALID,92.5473,VALID,0,VALID,23.6036,VALID,358,VALID,0.0140625,
2011-03-12, 00:10:04,VALID,999.48,VALID,0,VALID,92.5473,VALID,0,VALID,23.6019,VALID,358,VALID,0.267969,
2011-03-12, 00:11:04,VALID,999.475,VALID,0,VALID,92.5626,VALID,0,VALID,23.6835,VALID,358,VALID,0.362891,
2011-03-12, 00:12:04,VALID,999.494,VALID,0,VALID,92.5778,VALID,0,VALID,23.6817,VALID,358,VALID,0.480078,
2011-03-12, 00:13:04,VALID,999.447,VALID,0,VALID,92.5854,VALID,0,VALID,23.7012,VALID,7,VALID,0.680859,
2011-03-12, 00:14:04,VALID,999.445,VALID,0,VALID,92.5626,VALID,0,VALID,23.7012,VALID,110,VALID,0.847266,
2011-03-12, 00:15:04,VALID,999.382,VALID,0,VALID,92.532,VALID,0,VALID,23.6817,VALID,122,VALID,0.919141,
2011-03-12, 00:16:04,VALID,999.389,VALID,0,VALID,92.5015,VALID,0,VALID,23.6427,VALID,122,VALID,0.789844,
2011-03-12, 00:17:04,VALID,999.381,VALID,0,VALID,92.5091,VALID,0,VALID,23.6622,VALID,122,VALID,0.588281,
2011-03-12, 00:18:04,VALID,999.345,VALID,0,VALID,92.4786,VALID,0,VALID,23.6817,VALID,122,VALID,0.413281,
2011-03-12, 00:19:04,VALID,999.337,VALID,0,VALID,92.471,VALID,0,VALID,23.6994,VALID,122,VALID,0.334766,
2011-03-12, 00:20:04,VALID,999.318,VALID,0,VALID,92.471,VALID,0,VALID,23.6817,VALID,122,VALID,0.384375,
2011-03-12, 00:21:04,VALID,999.288,VALID,0,VALID,92.4328,VALID,0,VALID,23.6817,VALID,122,VALID,0.340234,
2011-03-12, 00:22:04,VALID,999.298,VALID,0,VALID,92.4023,VALID,0,VALID,23.6232,VALID,122,VALID,0.487891,
2011-03-12, 00:23:04,VALID,999.301,VALID,0,VALID,92.4023,VALID,0,VALID,23.6427,VALID,122,VALID,0.723828,
2011-03-12, 00:24:04,VALID,999.303,VALID,0,VALID,92.3566,VALID,0,VALID,23.6036,VALID,76,VALID,0.767578,
2011-03-12, 00:25:04,VALID,999.283,VALID,0,VALID,92.3337,VALID,0,VALID,23.5646,VALID,76,VALID,0.605078,
2011-03-12, 00:26:04,VALID,999.272,VALID,0,VALID,92.3031,VALID,0,VALID,23.5451,VALID,76,VALID,0.342969,
2011-03-12, 00:27:04,VALID,999.253,VALID,0,VALID,92.3031,VALID,0,VALID,23.5451,VALID,76,VALID,0.160938,
2011-03-12, 00:28:04,VALID,999.201,VALID,0,VALID,92.2955,VALID,0,VALID,23.5256,VALID,76,VALID,0.140234,
2011-03-12, 00:29:04,VALID,999.19,VALID,0,VALID,92.3184,VALID,0,VALID,23.5061,VALID,76,VALID,0.0800781,
2011-03-12, 00:30:04,VALID,999.172,VALID,0,VALID,92.3108,VALID,0,VALID,23.4866,VALID,76,VALID,0.425,
2011-03-12, 00:31:04,VALID,999.147,VALID,0,VALID,92.3337,VALID,0,VALID,23.4866,VALID,76,VALID,0.835547,
2011-03-12, 00:32:04,VALID,999.142,VALID,0,VALID,92.3489,VALID,0,VALID,23.5061,VALID,58,VALID,0.887891,
2011-03-12, 00:33:04,VALID,999.105,VALID,0,VALID,92.41,VALID,0,VALID,23.5256,VALID,58,VALID,0.932422,
2011-03-12, 00:34:04,VALID,999.091,VALID,0,VALID,92.4405,VALID,0,VALID,23.5451,VALID,58,VALID,0.726172,
2011-03-12, 00:35:04,VALID,999.047,VALID,0,VALID,92.4405,VALID,0,VALID,23.5451,VALID,58,VALID,0.612109,
2011-03-12, 00:36:04,VALID,999.026,VALID,0,VALID,92.4405,VALID,0,VALID,23.4653,VALID,58,VALID,0.474609,
2011-03-12, 00:37:04,VALID,999.015,VALID,0,VALID,92.3947,VALID,0,VALID,23.428,VALID,58,VALID,0.277734,
2011-03-12, 00:38:04,VALID,998.995,VALID,0,VALID,92.4176,VALID,0,VALID,23.389,VALID,58,VALID,0.456641,
2011-03-12, 00:39:04,VALID,999.029,VALID,0,VALID,92.41,VALID,0,VALID,23.389,VALID,58,VALID,0.497266,
2011-03-12, 00:40:04,VALID,999.024,VALID,0,VALID,92.4176,VALID,0,VALID,23.428,VALID,58,VALID,0.487109,
2011-03-12, 00:41:04,VALID,999.047,VALID,0,VALID,92.4405,VALID,0,VALID,23.428,VALID,58,VALID,0.29375,
2011-03-12, 00:42:04,VALID,999.04,VALID,0,VALID,92.4481,VALID,0,VALID,23.4067,VALID,58,VALID,0.368359,
2011-03-12, 00:43:04,VALID,999.05,VALID,0,VALID,92.4557,VALID,0,VALID,23.3695,VALID,58,VALID,0.129688,
2011-03-12, 00:44:04,VALID,999.018,VALID,0,VALID,92.4634,VALID,0,VALID,23.3305,VALID,58,VALID,0.315234,
2011-03-12, 00:45:04,VALID,999.028,VALID,0,VALID,92.4786,VALID,0,VALID,23.311,VALID,58,VALID,0.217187,
2011-03-12, 00:46:04,VALID,999.004,VALID,0,VALID,92.4863,VALID,0,VALID,23.2915,VALID,58,VALID,0.208203,
2011-03-12, 00:47:04,VALID,999.003,VALID,0,VALID,92.5168,VALID,0,VALID,23.311,VALID,58,VALID,0.223047,
2011-03-12, 00:48:04,VALID,998.979,VALID,0,VALID,92.5244,VALID,0,VALID,23.3127,VALID,58,VALID,0,
2011-03-12, 00:49:04,VALID,998.935,VALID,0,VALID,92.5397,VALID,0,VALID,23.311,VALID,58,VALID,0,
2011-03-12, 00:50:04,VALID,998.938,VALID,0,VALID,92.5549,VALID,0,VALID,23.2719,VALID,58,VALID,0,
2011-03-12, 00:51:04,VALID,998.937,VALID,0,VALID,92.5854,VALID,0,VALID,23.2719,VALID,73,VALID,0.642187,
2011-03-12, 00:52:04,VALID,998.939,VALID,0,VALID,92.6083,VALID,0,VALID,23.2915,VALID,108,VALID,0.666406,
2011-03-12, 00:53:04,VALID,998.904,VALID,0,VALID,92.6312,VALID,0,VALID,23.2897,VALID,108,VALID,0.894531,
2011-03-12, 00:54:04,VALID,998.885,VALID,0,VALID,92.6236,VALID,0,VALID,23.3305,VALID,108,VALID,0.915625,
2011-03-12, 00:55:04,VALID,998.861,VALID,0,VALID,92.6388,VALID,0,VALID,23.35,VALID,102,VALID,1.05664,
2011-03-12, 00:56:04,VALID,998.853,VALID,0,VALID,92.6388,VALID,0,VALID,23.389,VALID,102,VALID,0.785937,
2011-03-12, 00:57:04,VALID,998.829,VALID,0,VALID,92.6083,VALID,0,VALID,23.428,VALID,102,VALID,0.704687,
2011-03-12, 00:58:04,VALID,998.826,VALID,0,VALID,92.6007,VALID,0,VALID,23.4475,VALID,102,VALID,0.569141,
2011-03-12, 00:59:04,VALID,998.827,VALID,0,VALID,92.5854,VALID,0,VALID,23.4475,VALID,102,VALID,0.290625,
2011-03-12, 01:00:04,VALID,998.817,VALID,0,VALID,92.5702,VALID,0,VALID,23.4475,VALID,102,VALID,0.157813,
2011-03-12, 01:01:04,VALID,998.793,VALID,0,VALID,92.5549,VALID,0,VALID,23.4671,VALID,102,VALID,0.0921875,
2011-03-12, 01:02:04,VALID,998.789,VALID,0,VALID,92.5244,VALID,0,VALID,23.4671,VALID,102,VALID,0.361719,
2011-03-12, 01:03:04,VALID,998.766,VALID,0,VALID,92.5091,VALID,0,VALID,23.4866,VALID,102,VALID,0.015625,
2011-03-12, 01:04:04,VALID,998.712,VALID,0,VALID,92.4863,VALID,0,VALID,23.4848,VALID,123,VALID,0.55625,
2011-03-12, 01:05:04,VALID,998.693,VALID,0,VALID,92.471,VALID,0,VALID,23.5061,VALID,123,VALID,0.505859,
2011-03-12, 01:06:04,VALID,998.735,VALID,0,VALID,92.4634,VALID,0,VALID,23.5256,VALID,123,VALID,0.625781,
2011-03-12, 01:07:04,VALID,998.705,VALID,0,VALID,92.4481,VALID,0,VALID,23.5238,VALID,123,VALID,0.511719,
2011-03-12, 01:08:04,VALID,998.73,VALID,0,VALID,92.4252,VALID,0,VALID,23.5451,VALID,123,VALID,0.437109,
2011-03-12, 01:09:04,VALID,998.73,VALID,0,VALID,92.4023,VALID,0,VALID,23.5451,VALID,123,VALID,0.461328,
2011-03-12, 01:10:04,VALID,998.757,VALID,0,VALID,92.3718,VALID,0,VALID,23.5451,VALID,122,VALID,0.409766,
2011-03-12, 01:11:04,VALID,998.76,VALID,0,VALID,92.3566,VALID,0,VALID,23.5646,VALID,122,VALID,0.425781,
2011-03-12, 01:12:04,VALID,998.793,VALID,0,VALID,92.3184,VALID,0,VALID,23.5646,VALID,122,VALID,0.382031,
2011-03-12, 01:13:04,VALID,998.74,VALID,0,VALID,92.2803,VALID,0,VALID,23.5646,VALID,122,VALID,0.0929687,
2011-03-12, 01:14:04,VALID,998.72,VALID,0,VALID,92.2421,VALID,0,VALID,23.5646,VALID,122,VALID,0.0347656,
2011-03-12, 01:15:04,VALID,998.729,VALID,0,VALID,92.204,VALID,0,VALID,23.5841,VALID,122,VALID,0.170703,
2011-03-12, 01:16:04,VALID,998.691,VALID,0,VALID,92.1734,VALID,0,VALID,23.5841,VALID,122,VALID,0.344531,
2011-03-12, 01:17:04,VALID,998.647,VALID,0,VALID,92.1582,VALID,0,VALID,23.5646,VALID,116,VALID,0.338281,
2011-03-12, 01:18:04,VALID,998.649,VALID,0,VALID,92.1124,VALID,0,VALID,23.5646,VALID,116,VALID,0.5125,
2011-03-12, 01:19:04,VALID,998.616,VALID,0,VALID,92.0819,VALID,0,VALID,23.5433,VALID,86,VALID,0.803906,
2011-03-12, 01:20:04,VALID,998.58,VALID,0,VALID,92.0285,VALID,0,VALID,23.5646,VALID,90,VALID,0.625781,
2011-03-12, 01:21:04,VALID,998.547,VALID,0,VALID,91.9827,VALID,0,VALID,23.5646,VALID,84,VALID,0.36875,
2011-03-12, 01:22:04,VALID,998.521,VALID,0,VALID,91.9293,VALID,0,VALID,23.5646,VALID,84,VALID,0.256641,
2011-03-12, 01:23:04,VALID,998.487,VALID,0,VALID,91.914,VALID,0,VALID,23.5841,VALID,84,VALID,0.0015625,
2011-03-12, 01:24:04,VALID,998.478,VALID,0,VALID,91.8835,VALID,0,VALID,23.5646,VALID,84,VALID,0.0707031,
2011-03-12, 01:25:04,VALID,998.467,VALID,0,VALID,91.8606,VALID,0,VALID,23.5859,VALID,84,VALID,0.139062,
2011-03-12, 01:26:04,VALID,998.432,VALID,0,VALID,91.7996,VALID,0,VALID,23.5646,VALID,84,VALID,0.198047,
2011-03-12, 01:27:04,VALID,998.401,VALID,0,VALID,91.7843,VALID,0,VALID,23.5646,VALID,84,VALID,0.176953,
2011-03-12, 01:28:04,VALID,998.388,VALID,0,VALID,91.792,VALID,0,VALID,23.5646,VALID,84,VALID,0.252344,
2011-03-12, 01:29:04,VALID,998.391,VALID,0,VALID,91.792,VALID,0,VALID,23.5646,VALID,84,VALID,0.1125,
2011-03-12, 01:30:04,VALID,998.381,VALID,0,VALID,91.7691,VALID,0,VALID,23.5841,VALID,84,VALID,0,
2011-03-12, 01:31:04,VALID,998.38,VALID,0,VALID,91.7691,VALID,0,VALID,23.5841,VALID,84,VALID,0,
2011-03-12, 01:32:04,VALID,998.339,VALID,0,VALID,91.7385,VALID,0,VALID,23.5433,VALID,84,VALID,0,
2011-03-12, 01:33:04,VALID,998.331,VALID,0,VALID,91.7385,VALID,0,VALID,23.5433,VALID,84,VALID,0.101563,
2011-03-12, 01:34:04,VALID,998.328,VALID,0,VALID,91.7462,VALID,0,VALID,23.5646,VALID,84,VALID,0.157422,
2011-03-12, 01:35:04,VALID,998.321,VALID,0,VALID,91.7538,VALID,0,VALID,23.5646,VALID,84,VALID,0.110547,
2011-03-12, 01:36:04,VALID,998.321,VALID,0,VALID,91.7614,VALID,0,VALID,23.5646,VALID,84,VALID,0.396094,
2011-03-12, 01:37:04,VALID,998.303,VALID,0,VALID,91.7385,VALID,0,VALID,23.5646,VALID,84,VALID,0.25,
2011-03-12, 01:38:04,VALID,998.289,VALID,0,VALID,91.7462,VALID,0,VALID,23.5646,VALID,84,VALID,0.263672,
2011-03-12, 01:39:04,VALID,998.262,VALID,0,VALID,91.7233,VALID,0,VALID,23.5646,VALID,84,VALID,0.0328125,
2011-03-12, 01:40:04,VALID,998.276,VALID,0,VALID,91.7157,VALID,0,VALID,23.5646,VALID,84,VALID,0.162891,
2011-03-12, 01:41:04,VALID,998.249,VALID,0,VALID,91.708,VALID,0,VALID,23.5433,VALID,84,VALID,0.201562,
2011-03-12, 01:42:04,VALID,998.282,VALID,0,VALID,91.7233,VALID,0,VALID,23.5628,VALID,85,VALID,0.768359,
2011-03-12, 01:43:04,VALID,998.233,VALID,0,VALID,91.6928,VALID,0,VALID,23.6054,VALID,85,VALID,0.612891,
2011-03-12, 01:44:04,VALID,998.231,VALID,0,VALID,91.6394,VALID,0,VALID,23.6232,VALID,85,VALID,0.631641,
2011-03-12, 01:45:04,VALID,998.218,VALID,0,VALID,91.5707,VALID,0,VALID,23.6232,VALID,85,VALID,0.527344,
2011-03-12, 01:46:04,VALID,998.221,VALID,0,VALID,91.502,VALID,0,VALID,23.6427,VALID,85,VALID,0.264844,
2011-03-12, 01:47:04,VALID,998.206,VALID,0,VALID,91.4105,VALID,0,VALID,23.6622,VALID,85,VALID,0.267969,
2011-03-12, 01:48:04,VALID,998.186,VALID,0,VALID,91.3189,VALID,0,VALID,23.6622,VALID,85,VALID,0.0492188,
2011-03-12, 01:49:04,VALID,998.188,VALID,0,VALID,91.2655,VALID,0,VALID,23.6409,VALID,85,VALID,0,
2011-03-12, 01:50:04,VALID,998.181,VALID,0,VALID,91.235,VALID,0,VALID,23.6622,VALID,85,VALID,0,
2011-03-12, 01:51:04,VALID,998.207,VALID,0,VALID,91.1968,VALID,0,VALID,23.6604,VALID,85,VALID,0,
2011-03-12, 01:52:04,VALID,998.172,VALID,0,VALID,91.2121,VALID,0,VALID,23.6817,VALID,85,VALID,0.260156,
2011-03-12, 01:53:04,VALID,998.156,VALID,0,VALID,91.1968,VALID,0,VALID,23.6817,VALID,85,VALID,0.269141,
2011-03-12, 01:54:04,VALID,998.118,VALID,0,VALID,91.174,VALID,0,VALID,23.6817,VALID,85,VALID,0.0605469,
2011-03-12, 01:55:04,VALID,998.135,VALID,0,VALID,91.1282,VALID,0,VALID,23.6817,VALID,85,VALID,0,
2011-03-12, 01:56:04,VALID,998.149,VALID,0,VALID,91.09,VALID,0,VALID,23.6817,VALID,85,VALID,0,
2011-03-12, 01:57:04,VALID,998.14,VALID,0,VALID,91.0824,VALID,0,VALID,23.6604,VALID,85,VALID,0,
2011-03-12, 01:58:04,VALID,998.155,VALID,0,VALID,91.1053,VALID,0,VALID,23.6817,VALID,85,VALID,0,
2011-03-12, 01:59:04,VALID,998.149,VALID,0,VALID,91.1587,VALID,0,VALID,23.6817,VALID,85,VALID,0.0363281,
2011-03-12, 02:00:04,VALID,998.16,VALID,0,VALID,91.1968,VALID,0,VALID,23.6604,VALID,85,VALID,0.158203,
2011-03-12, 02:01:04,VALID,998.113,VALID,0,VALID,91.2274,VALID,0,VALID,23.6622,VALID,85,VALID,0.160547,
2011-03-12, 02:02:04,VALID,998.144,VALID,0,VALID,91.2655,VALID,0,VALID,23.6604,VALID,85,VALID,0.347656,
2011-03-12, 02:03:04,VALID,998.129,VALID,0,VALID,91.296,VALID,0,VALID,23.6622,VALID,85,VALID,0.382813,
2011-03-12, 02:04:04,VALID,998.114,VALID,0,VALID,91.3342,VALID,0,VALID,23.6817,VALID,85,VALID,0.542969,
2011-03-12, 02:05:04,VALID,998.115,VALID,0,VALID,91.3647,VALID,0,VALID,23.6817,VALID,2,VALID,0.8,
2011-03-12, 02:06:04,VALID,998.099,VALID,0,VALID,91.3876,VALID,0,VALID,23.6622,VALID,2,VALID,0.914453,
2011-03-12, 02:07:04,VALID,998.103,VALID,0,VALID,91.4181,VALID,0,VALID,23.6622,VALID,2,VALID,0.95625,
2011-03-12, 02:08:04,VALID,998.128,VALID,0,VALID,91.4868,VALID,0,VALID,23.6427,VALID,2,VALID,0.749609,
2011-03-12, 02:09:04,VALID,998.117,VALID,0,VALID,91.586,VALID,0,VALID,23.6427,VALID,2,VALID,0.460547,
2011-03-12, 02:10:04,VALID,998.105,VALID,0,VALID,91.647,VALID,0,VALID,23.6232,VALID,2,VALID,0.00585938,
2011-03-12, 02:11:04,VALID,998.074,VALID,0,VALID,91.7385,VALID,0,VALID,23.6232,VALID,2,VALID,0,
2011-03-12, 02:12:04,VALID,998.052,VALID,0,VALID,91.7996,VALID,0,VALID,23.6232,VALID,2,VALID,0,
2011-03-12, 02:13:04,VALID,998.041,VALID,0,VALID,91.8759,VALID,0,VALID,23.6427,VALID,2,VALID,0,
2011-03-12, 02:14:04,VALID,998.036,VALID,0,VALID,91.9293,VALID,0,VALID,23.6232,VALID,2,VALID,0,
2011-03-12, 02:15:04,VALID,998.055,VALID,0,VALID,91.9674,VALID,0,VALID,23.6427,VALID,2,VALID,0,
2011-03-12, 02:16:04,VALID,998.052,VALID,0,VALID,91.9598,VALID,0,VALID,23.6214,VALID,2,VALID,0,
2011-03-12, 02:17:04,VALID,998.016,VALID,0,VALID,91.998,VALID,0,VALID,23.6232,VALID,2,VALID,0,
2011-03-12, 02:18:04,VALID,998.047,VALID,0,VALID,92.0056,VALID,0,VALID,23.6036,VALID,2,VALID,0.559766,
2011-03-12, 02:19:04,VALID,998.035,VALID,0,VALID,91.9903,VALID,0,VALID,23.5841,VALID,19,VALID,0.787109,
2011-03-12, 02:20:04,VALID,998.068,VALID,0,VALID,92.0132,VALID,0,VALID,23.5841,VALID,19,VALID,0.524219,
2011-03-12, 02:21:04,VALID,998.042,VALID,0,VALID,92.0514,VALID,0,VALID,23.5841,VALID,19,VALID,0.0980469,
2011-03-12, 02:22:04,VALID,998.052,VALID,0,VALID,92.0743,VALID,0,VALID,23.5841,VALID,19,VALID,0,
2011-03-12, 02:23:04,VALID,998.007,VALID,0,VALID,92.0819,VALID,0,VALID,23.5628,VALID,19,VALID,0,
2011-03-12, 02:24:04,VALID,998.007,VALID,0,VALID,92.1124,VALID,0,VALID,23.5628,VALID,19,VALID,0,
2011-03-12, 02:25:04,VALID,998.019,VALID,0,VALID,92.1277,VALID,0,VALID,23.5628,VALID,19,VALID,0,
2011-03-12, 02:26:04,VALID,997.98,VALID,0,VALID,92.1353,VALID,0,VALID,23.5628,VALID,19,VALID,0.183203,
2011-03-12, 02:27:04,VALID,997.95,VALID,0,VALID,92.1429,VALID,0,VALID,23.5646,VALID,19,VALID,0,
2011-03-12, 02:28:04,VALID,997.952,VALID,0,VALID,92.1658,VALID,0,VALID,23.5646,VALID,19,VALID,0.00078125,
2011-03-12, 02:29:04,VALID,997.932,VALID,0,VALID,92.1734,VALID,0,VALID,23.5238,VALID,19,VALID,0.217578,
2011-03-12, 02:30:04,VALID,997.926,VALID,0,VALID,92.1887,VALID,0,VALID,23.5256,VALID,19,VALID,0,
2011-03-12, 02:31:04,VALID,997.868,VALID,0,VALID,92.1887,VALID,0,VALID,23.5061,VALID,19,VALID,0,
2011-03-12, 02:32:04,VALID,997.877,VALID,0,VALID,92.204,VALID,0,VALID,23.4866,VALID,19,VALID,0,
2011-03-12, 02:33:04,VALID,997.85,VALID,0,VALID,92.2116,VALID,0,VALID,23.4866,VALID,19,VALID,0,
2011-03-12, 02:34:04,VALID,997.814,VALID,0,VALID,92.2421,VALID,0,VALID,23.4866,VALID,19,VALID,0,
2011-03-12, 02:35:04,VALID,997.79,VALID,0,VALID,92.2574,VALID,0,VALID,23.4866,VALID,19,VALID,0.639453,
2011-03-12, 02:36:04,VALID,997.808,VALID,0,VALID,92.2955,VALID,0,VALID,23.4671,VALID,19,VALID,0.544141,
2011-03-12, 02:37:04,VALID,997.792,VALID,0,VALID,92.2803,VALID,0,VALID,23.4458,VALID,19,VALID,0.360938,
2011-03-12, 02:38:04,VALID,997.824,VALID,0,VALID,92.2726,VALID,0,VALID,23.428,VALID,19,VALID,0.366406,
2011-03-12, 02:39:04,VALID,997.799,VALID,0,VALID,92.2879,VALID,0,VALID,23.389,VALID,19,VALID,0.33125,
2011-03-12, 02:40:04,VALID,997.802,VALID,0,VALID,92.265,VALID,0,VALID,23.3287,VALID,19,VALID,0.307813,
2011-03-12, 02:41:04,VALID,997.798,VALID,0,VALID,92.2955,VALID,0,VALID,23.3305,VALID,24,VALID,0.634375,
2011-03-12, 02:42:04,VALID,997.801,VALID,0,VALID,92.3184,VALID,0,VALID,23.35,VALID,55,VALID,0.713281,
2011-03-12, 02:43:04,VALID,997.774,VALID,0,VALID,92.3413,VALID,0,VALID,23.3482,VALID,55,VALID,0.512109,
2011-03-12, 02:44:04,VALID,997.758,VALID,0,VALID,92.3566,VALID,0,VALID,23.3482,VALID,55,VALID,0.380859,
2011-03-12, 02:45:04,VALID,997.729,VALID,0,VALID,92.41,VALID,0.112286,VALID,23.3695,VALID,55,VALID,0.460156,
2011-03-12, 02:46:04,VALID,997.715,VALID,0,VALID,92.4176,VALID,0,VALID,23.3695,VALID,54,VALID,0.581641,
2011-03-12, 02:47:04,VALID,997.721,VALID,0,VALID,92.41,VALID,0,VALID,23.35,VALID,38,VALID,0.850781,
2011-03-12, 02:48:04,VALID,997.741,VALID,0,VALID,92.4252,VALID,0,VALID,23.3518,VALID,19,VALID,1.02539,
2011-03-12, 02:49:04,VALID,997.745,VALID,0,VALID,92.4481,VALID,0,VALID,23.3305,VALID,15,VALID,0.908203,
2011-03-12, 02:50:04,VALID,997.728,VALID,0,VALID,92.4634,VALID,0,VALID,23.3305,VALID,15,VALID,0.802344,
2011-03-12, 02:51:04,VALID,997.712,VALID,0,VALID,92.4863,VALID,0,VALID,23.3305,VALID,15,VALID,0.599609,
2011-03-12, 02:52:04,VALID,997.694,VALID,0,VALID,92.5091,VALID,0,VALID,23.3305,VALID,15,VALID,0.318359,
2011-03-12, 02:53:04,VALID,997.694,VALID,0,VALID,92.5473,VALID,0,VALID,23.311,VALID,15,VALID,0.291016,
2011-03-12, 02:54:04,VALID,997.698,VALID,0,VALID,92.5397,VALID,0,VALID,23.311,VALID,15,VALID,0.396875,
2011-03-12, 02:55:04,VALID,997.72,VALID,0,VALID,92.5549,VALID,0,VALID,23.311,VALID,15,VALID,0.432813,
2011-03-12, 02:56:04,VALID,997.681,VALID,0,VALID,92.5778,VALID,0,VALID,23.311,VALID,15,VALID,0.326562,
2011-03-12, 02:57:04,VALID,997.687,VALID,0,VALID,92.5931,VALID,0,VALID,23.3305,VALID,15,VALID,0.332422,
2011-03-12, 02:58:04,VALID,997.661,VALID,0,VALID,92.5931,VALID,0,VALID,23.3305,VALID,15,VALID,0.332422,
2011-03-12, 02:59:04,VALID,997.628,VALID,0,VALID,92.6388,VALID,0,VALID,23.3305,VALID,15,VALID,0.222266,
2011-03-12, 03:00:04,VALID,997.621,VALID,0,VALID,92.6617,VALID,0,VALID,23.3287,VALID,15,VALID,0,
2011-03-12, 03:01:04,VALID,997.617,VALID,0,VALID,92.6541,VALID,0,VALID,23.35,VALID,15,VALID,0,
2011-03-12, 03:02:04,VALID,997.613,VALID,0,VALID,92.6541,VALID,0,VALID,23.3305,VALID,15,VALID,0,
2011-03-12, 03:03:04,VALID,997.641,VALID,0,VALID,92.6541,VALID,0,VALID,23.35,VALID,15,VALID,0,
2011-03-12, 03:04:04,VALID,997.643,VALID,0,VALID,92.6541,VALID,0,VALID,23.35,VALID,15,VALID,0,
2011-03-12, 03:05:04,VALID,997.688,VALID,0,VALID,92.6617,VALID,0,VALID,23.35,VALID,15,VALID,0.252734,
2011-03-12, 03:06:04,VALID,997.679,VALID,0,VALID,92.6999,VALID,0,VALID,23.3695,VALID,15,VALID,0.216016,
2011-03-12, 03:07:04,VALID,997.735,VALID,0,VALID,92.6999,VALID,0,VALID,23.3695,VALID,15,VALID,0,
2011-03-12, 03:08:04,VALID,997.733,VALID,0,VALID,92.7228,VALID,0,VALID,23.4085,VALID,15,VALID,0,
2011-03-12, 03:09:04,VALID,997.754,VALID,0,VALID,92.7457,VALID,0.112286,VALID,23.4085,VALID,15,VALID,0,
2011-03-12, 03:10:04,VALID,997.768,VALID,0,VALID,92.738,VALID,0,VALID,23.428,VALID,15,VALID,0,
2011-03-12, 03:11:04,VALID,997.76,VALID,0,VALID,92.7457,VALID,0,VALID,23.4475,VALID,15,VALID,0,
2011-03-12, 03:12:04,VALID,997.735,VALID,0,VALID,92.7533,VALID,0,VALID,23.428,VALID,15,VALID,0,
2011-03-12, 03:13:04,VALID,997.766,VALID,0,VALID,92.738,VALID,0,VALID,23.428,VALID,15,VALID,0,
2011-03-12, 03:14:04,VALID,997.728,VALID,0,VALID,92.738,VALID,0,VALID,23.4085,VALID,15,VALID,0.444141,
2011-03-12, 03:15:04,VALID,997.726,VALID,0,VALID,92.7304,VALID,0,VALID,23.4085,VALID,15,VALID,0.496875,
2011-03-12, 03:16:04,VALID,997.723,VALID,0,VALID,92.7151,VALID,0,VALID,23.428,VALID,15,VALID,0.309766,
2011-03-12, 03:17:04,VALID,997.728,VALID,0,VALID,92.7075,VALID,0,VALID,23.428,VALID,15,VALID,0,
2011-03-12, 03:18:04,VALID,997.692,VALID,0,VALID,92.6999,VALID,0,VALID,23.428,VALID,15,VALID,0,
2011-03-12, 03:19:04,VALID,997.734,VALID,0,VALID,92.7075,VALID,0,VALID,23.428,VALID,15,VALID,0.189844,
2011-03-12, 03:20:04,VALID,997.71,VALID,0,VALID,92.7075,VALID,0,VALID,23.4475,VALID,271,VALID,0.766797,
2011-03-12, 03:21:04,VALID,997.779,VALID,0,VALID,92.6846,VALID,0,VALID,23.4671,VALID,270,VALID,0.817969,
2011-03-12, 03:22:04,VALID,997.788,VALID,0,VALID,92.6923,VALID,0,VALID,23.4866,VALID,270,VALID,0.835547,
2011-03-12, 03:23:04,VALID,997.85,VALID,0,VALID,92.677,VALID,0,VALID,23.5061,VALID,264,VALID,1.04961,
2011-03-12, 03:24:04,VALID,997.888,VALID,0,VALID,92.677,VALID,0,VALID,23.5061,VALID,261,VALID,0.816797,
2011-03-12, 03:25:04,VALID,997.894,VALID,0,VALID,92.6846,VALID,0.112286,VALID,23.5061,VALID,261,VALID,0.685547,
2011-03-12, 03:26:04,VALID,997.907,VALID,0,VALID,92.6617,VALID,0,VALID,23.5061,VALID,260,VALID,0.421094,
2011-03-12, 03:27:04,VALID,997.939,VALID,0,VALID,92.6312,VALID,0,VALID,23.5061,VALID,260,VALID,0.153125,
2011-03-12, 03:28:04,VALID,997.931,VALID,0,VALID,92.6465,VALID,0,VALID,23.5079,VALID,260,VALID,0.425,
2011-03-12, 03:29:04,VALID,997.938,VALID,0,VALID,92.6083,VALID,0,VALID,23.4866,VALID,261,VALID,0.719922,
2011-03-12, 03:30:04,VALID,997.939,VALID,0,VALID,92.6083,VALID,0,VALID,23.5079,VALID,261,VALID,0.657812,
2011-03-12, 03:31:04,VALID,997.915,VALID,0,VALID,92.5931,VALID,0,VALID,23.5079,VALID,261,VALID,0.470313,
2011-03-12, 03:32:04,VALID,997.894,VALID,0,VALID,92.5702,VALID,0,VALID,23.4884,VALID,261,VALID,0,
2011-03-12, 03:33:04,VALID,997.918,VALID,0,VALID,92.5778,VALID,0,VALID,23.4884,VALID,261,VALID,0,
2011-03-12, 03:34:04,VALID,997.889,VALID,0,VALID,92.5626,VALID,0,VALID,23.4671,VALID,261,VALID,0,
2011-03-12, 03:35:04,VALID,997.903,VALID,0,VALID,92.5549,VALID,0,VALID,23.4688,VALID,261,VALID,0,
2011-03-12, 03:36:04,VALID,997.967,VALID,0,VALID,92.5244,VALID,0,VALID,23.4688,VALID,261,VALID,0,
2011-03-12, 03:37:04,VALID,997.952,VALID,0,VALID,92.532,VALID,0,VALID,23.4688,VALID,261,VALID,0.685547,
2011-03-12, 03:38:04,VALID,997.97,VALID,0,VALID,92.5397,VALID,0,VALID,23.4493,VALID,337,VALID,0.818359,
2011-03-12, 03:39:04,VALID,998.014,VALID,0,VALID,92.5091,VALID,0,VALID,23.428,VALID,337,VALID,0.819922,
2011-03-12, 03:40:04,VALID,998.009,VALID,0,VALID,92.532,VALID,0,VALID,23.4688,VALID,337,VALID,0.887891,
2011-03-12, 03:41:04,VALID,998.07,VALID,0,VALID,92.5473,VALID,0,VALID,23.5079,VALID,315,VALID,1.72891,
2011-03-12, 03:42:04,VALID,998.042,VALID,0,VALID,92.5702,VALID,0,VALID,23.5274,VALID,319,VALID,1.34063,
2011-03-12, 03:43:04,VALID,998.032,VALID,0,VALID,92.5778,VALID,0,VALID,23.5451,VALID,325,VALID,0.493359,
2011-03-12, 03:44:04,VALID,998.043,VALID,0,VALID,92.6083,VALID,0,VALID,23.5451,VALID,306,VALID,0.572266,
2011-03-12, 03:45:04,VALID,998.011,VALID,0,VALID,92.6007,VALID,0,VALID,23.5841,VALID,333,VALID,0.714453,
2011-03-12, 03:46:04,VALID,997.994,VALID,0,VALID,92.6083,VALID,0,VALID,23.6232,VALID,359,VALID,0.832812,
2011-03-12, 03:47:04,VALID,997.988,VALID,0,VALID,92.616,VALID,0,VALID,23.6409,VALID,16,VALID,0.935938,
2011-03-12, 03:48:04,VALID,997.964,VALID,0,VALID,92.6236,VALID,0,VALID,23.6622,VALID,59,VALID,0.916797,
2011-03-12, 03:49:04,VALID,997.967,VALID,0,VALID,92.6312,VALID,0,VALID,23.6817,VALID,66,VALID,0.8875,